owner,sensor,date,latitude,longitude,vertical_datum,sea_water_practical_salinity,qcFlag 
FWRI,ioos:station:FWRI:NPD:2,2013-06-01T00:59:00Z,27.3338,-82.5794,0.0,35.62,1111122 
FWRI,ioos:station:FWRI:NPD:2,2013-06-01T01:59:00Z,27.3338,-82.5794,0.0,35.58,1111122 
FWRI,ioos:station:FWRI:NPD:2,2013-06-01T02:59:00Z,27.3338,-82.5794,0.0,35.59,1111122 
FWRI,ioos:station:FWRI:NPD:2,2013-06-01T03:59:00Z,27.3338,-82.5794,0.0,35.6,1111122 
FWRI,ioos:station:FWRI:NPD:2,2013-06-01T04:59:00Z,27.3338,-82.5794,0.0,35.63,1111122 
FWRI,ioos:station:FWRI:NPD:2,2013-06-01T05:59:00Z,27.3338,-82.5794,0.0,35.64,1111122 
FWRI,ioos:station:FWRI:NPD:2,2013-06-01T06:59:00Z,27.3338,-82.5794,0.0,35.61,1111122 
FWRI,ioos:station:FWRI:NPD:2,2013-06-01T07:59:00Z,27.3338,-82.5794,0.0,35.67,1111122 
FWRI,ioos:station:FWRI:NPD:2,2013-06-01T08:59:00Z,27.3338,-82.5794,0.0,35.69,1111122 
FWRI,ioos:station:FWRI:NPD:2,2013-06-01T09:59:00Z,27.3338,-82.5794,0.0,35.68,1111122 
FWRI,ioos:station:FWRI:NPD:2,2013-06-01T10:59:00Z,27.3338,-82.5794,0.0,35.67,1111122 
FWRI,ioos:station:FWRI:NPD:2,2013-06-01T11:59:00Z,27.3338,-82.5794,0.0,35.69,1111122 
FWRI,ioos:station:FWRI:NPD:2,2013-06-01T12:59:00Z,27.3338,-82.5794,0.0,35.68,1111122 
FWRI,ioos:station:FWRI:NPD:2,2013-06-01T13:59:00Z,27.3338,-82.5794,0.0,35.63,1111122 
FWRI,ioos:station:FWRI:NPD:2,2013-06-01T14:59:00Z,27.3338,-82.5794,0.0,35.63,1111122 
FWRI,ioos:station:FWRI:NPD:2,2013-06-01T15:59:00Z,27.3338,-82.5794,0.0,35.59,1111122 
FWRI,ioos:station:FWRI:NPD:2,2013-06-01T16:59:00Z,27.3338,-82.5794,0.0,35.56,1111122 
FWRI,ioos:station:FWRI:NPD:2,2013-06-01T17:59:00Z,27.3338,-82.5794,0.0,35.56,1111122 
FWRI,ioos:station:FWRI:NPD:2,2013-06-01T18:59:00Z,27.3338,-82.5794,0.0,35.58,1111122 
FWRI,ioos:station:FWRI:NPD:2,2013-06-01T19:59:00Z,27.3338,-82.5794,0.0,35.53,1111122 
FWRI,ioos:station:FWRI:NPD:2,2013-06-01T20:59:00Z,27.3338,-82.5794,0.0,35.54,1111122 
FWRI,ioos:station:FWRI:NPD:2,2013-06-01T21:59:00Z,27.3338,-82.5794,0.0,35.6,1111122 
FWRI,ioos:station:FWRI:NPD:2,2013-06-01T22:59:00Z,27.3338,-82.5794,0.0,35.6,1111122 
FWRI,ioos:station:FWRI:NPD:2,2013-06-01T23:59:00Z,27.3338,-82.5794,0.0,35.61,1111122 
FWRI,ioos:station:FWRI:NPD:2,2013-06-02T00:59:00Z,27.3338,-82.5794,0.0,35.66,1111122 
FWRI,ioos:station:FWRI:NPD:2,2013-06-02T01:59:00Z,27.3338,-82.5794,0.0,35.71,1111122 
FWRI,ioos:station:FWRI:NPD:2,2013-06-02T02:59:00Z,27.3338,-82.5794,0.0,35.72,1111122 
FWRI,ioos:station:FWRI:NPD:2,2013-06-02T03:59:00Z,27.3338,-82.5794,0.0,35.69,1111122 
FWRI,ioos:station:FWRI:NPD:2,2013-06-02T04:59:00Z,27.3338,-82.5794,0.0,35.66,1111122 
FWRI,ioos:station:FWRI:NPD:2,2013-06-02T05:59:00Z,27.3338,-82.5794,0.0,35.62,1111122 
FWRI,ioos:station:FWRI:NPD:2,2013-06-02T06:59:00Z,27.3338,-82.5794,0.0,35.64,1111122 
FWRI,ioos:station:FWRI:NPD:2,2013-06-02T07:59:00Z,27.3338,-82.5794,0.0,35.62,1111122 
FWRI,ioos:station:FWRI:NPD:2,2013-06-02T08:59:00Z,27.3338,-82.5794,0.0,35.69,1111122 
FWRI,ioos:station:FWRI:NPD:2,2013-06-02T09:59:00Z,27.3338,-82.5794,0.0,35.69,1111122 
FWRI,ioos:station:FWRI:NPD:2,2013-06-02T10:59:00Z,27.3338,-82.5794,0.0,35.7,1111122 
FWRI,ioos:station:FWRI:NPD:2,2013-06-02T11:59:00Z,27.3338,-82.5794,0.0,35.7,1111122 
FWRI,ioos:station:FWRI:NPD:2,2013-06-02T12:59:00Z,27.3338,-82.5794,0.0,35.71,1111122 
FWRI,ioos:station:FWRI:NPD:2,2013-06-02T13:59:00Z,27.3338,-82.5794,0.0,35.66,1111122 
FWRI,ioos:station:FWRI:NPD:2,2013-06-02T14:59:00Z,27.3338,-82.5794,0.0,35.6,1111122 
FWRI,ioos:station:FWRI:NPD:2,2013-06-02T15:59:00Z,27.3338,-82.5794,0.0,35.6,1111122 
FWRI,ioos:station:FWRI:NPD:2,2013-06-02T16:59:00Z,27.3338,-82.5794,0.0,35.56,1111122 
FWRI,ioos:station:FWRI:NPD:2,2013-06-02T17:59:00Z,27.3338,-82.5794,0.0,35.56,1111122 
FWRI,ioos:station:FWRI:NPD:2,2013-06-02T18:59:00Z,27.3338,-82.5794,0.0,35.56,1111122 
FWRI,ioos:station:FWRI:NPD:2,2013-06-02T19:59:00Z,27.3338,-82.5794,0.0,35.53,1111122 
FWRI,ioos:station:FWRI:NPD:2,2013-06-02T20:59:00Z,27.3338,-82.5794,0.0,35.53,1111122 
FWRI,ioos:station:FWRI:NPD:2,2013-06-02T21:59:00Z,27.3338,-82.5794,0.0,35.53,1111122 
FWRI,ioos:station:FWRI:NPD:2,2013-06-02T22:59:00Z,27.3338,-82.5794,0.0,35.59,1111122 
FWRI,ioos:station:FWRI:NPD:2,2013-06-02T23:59:00Z,27.3338,-82.5794,0.0,35.63,1111122 
FWRI,ioos:station:FWRI:NPD:2,2013-06-03T00:59:00Z,27.3338,-82.5794,0.0,35.63,1111122 
FWRI,ioos:station:FWRI:NPD:2,2013-06-03T01:59:00Z,27.3338,-82.5794,0.0,35.68,1111122 
FWRI,ioos:station:FWRI:NPD:2,2013-06-03T02:59:00Z,27.3338,-82.5794,0.0,35.71,1111122 
FWRI,ioos:station:FWRI:NPD:2,2013-06-03T03:59:00Z,27.3338,-82.5794,0.0,35.72,1111122 
FWRI,ioos:station:FWRI:NPD:2,2013-06-03T04:59:00Z,27.3338,-82.5794,0.0,35.73,1111122 
FWRI,ioos:station:FWRI:NPD:2,2013-06-03T05:59:00Z,27.3338,-82.5794,0.0,35.73,1111122 
FWRI,ioos:station:FWRI:NPD:2,2013-06-03T06:59:00Z,27.3338,-82.5794,0.0,35.72,1111122 
FWRI,ioos:station:FWRI:NPD:2,2013-06-03T07:59:00Z,27.3338,-82.5794,0.0,35.72,1111122 
FWRI,ioos:station:FWRI:NPD:2,2013-06-03T08:59:00Z,27.3338,-82.5794,0.0,35.72,1111122 
FWRI,ioos:station:FWRI:NPD:2,2013-06-03T09:59:00Z,27.3338,-82.5794,0.0,35.72,1111122 
FWRI,ioos:station:FWRI:NPD:2,2013-06-03T10:59:00Z,27.3338,-82.5794,0.0,35.73,1111122 
FWRI,ioos:station:FWRI:NPD:2,2013-06-03T11:59:00Z,27.3338,-82.5794,0.0,35.75,1111122 
FWRI,ioos:station:FWRI:NPD:2,2013-06-03T12:59:00Z,27.3338,-82.5794,0.0,35.7,1111122 
FWRI,ioos:station:FWRI:NPD:2,2013-06-03T13:59:00Z,27.3338,-82.5794,0.0,35.35,1111122 
FWRI,ioos:station:FWRI:NPD:2,2013-06-03T14:59:00Z,27.3338,-82.5794,0.0,35.18,1111122 
FWRI,ioos:station:FWRI:NPD:2,2013-06-03T15:59:00Z,27.3338,-82.5794,0.0,35.27,1111122 
FWRI,ioos:station:FWRI:NPD:2,2013-06-03T16:59:00Z,27.3338,-82.5794,0.0,35.11,1111122 
FWRI,ioos:station:FWRI:NPD:2,2013-06-03T17:59:00Z,27.3338,-82.5794,0.0,35.05,1111122 
FWRI,ioos:station:FWRI:NPD:2,2013-06-03T18:59:00Z,27.3338,-82.5794,0.0,35.13,1111122 
FWRI,ioos:station:FWRI:NPD:2,2013-06-03T19:59:00Z,27.3338,-82.5794,0.0,35.21,1111122 
FWRI,ioos:station:FWRI:NPD:2,2013-06-03T20:59:00Z,27.3338,-82.5794,0.0,35.31,1111122 
FWRI,ioos:station:FWRI:NPD:2,2013-06-03T21:59:00Z,27.3338,-82.5794,0.0,35.4,1111122 
FWRI,ioos:station:FWRI:NPD:2,2013-06-03T22:59:00Z,27.3338,-82.5794,0.0,35.35,1111122 
FWRI,ioos:station:FWRI:NPD:2,2013-06-03T23:59:00Z,27.3338,-82.5794,0.0,35.34,1111122 
FWRI,ioos:station:FWRI:NPD:2,2013-06-04T00:59:00Z,27.3338,-82.5794,0.0,35.34,1111122 
FWRI,ioos:station:FWRI:NPD:2,2013-06-04T01:59:00Z,27.3338,-82.5794,0.0,35.35,1111122 
FWRI,ioos:station:FWRI:NPD:2,2013-06-04T02:59:00Z,27.3338,-82.5794,0.0,35.36,1111122 
FWRI,ioos:station:FWRI:NPD:2,2013-06-04T03:59:00Z,27.3338,-82.5794,0.0,35.38,1111122 
FWRI,ioos:station:FWRI:NPD:2,2013-06-04T04:59:00Z,27.3338,-82.5794,0.0,35.39,1111122 
FWRI,ioos:station:FWRI:NPD:2,2013-06-04T05:59:00Z,27.3338,-82.5794,0.0,35.41,1111122 
FWRI,ioos:station:FWRI:NPD:2,2013-06-04T06:59:00Z,27.3338,-82.5794,0.0,35.4,1111122 
FWRI,ioos:station:FWRI:NPD:2,2013-06-04T07:59:00Z,27.3338,-82.5794,0.0,35.4,1111122 
FWRI,ioos:station:FWRI:NPD:2,2013-06-04T08:59:00Z,27.3338,-82.5794,0.0,35.4,1111122 
FWRI,ioos:station:FWRI:NPD:2,2013-06-04T09:59:00Z,27.3338,-82.5794,0.0,35.4,1111122 
FWRI,ioos:station:FWRI:NPD:2,2013-06-04T10:59:00Z,27.3338,-82.5794,0.0,35.4,1111122 
FWRI,ioos:station:FWRI:NPD:2,2013-06-04T11:59:00Z,27.3338,-82.5794,0.0,35.4,1111122 
FWRI,ioos:station:FWRI:NPD:2,2013-06-04T12:59:00Z,27.3338,-82.5794,0.0,35.41,1111122 
FWRI,ioos:station:FWRI:NPD:2,2013-06-04T13:59:00Z,27.3338,-82.5794,0.0,35.42,1111122 
FWRI,ioos:station:FWRI:NPD:2,2013-06-04T14:59:00Z,27.3338,-82.5794,0.0,35.42,1111122 
FWRI,ioos:station:FWRI:NPD:2,2013-06-04T15:59:00Z,27.3338,-82.5794,0.0,35.43,1111122 
FWRI,ioos:station:FWRI:NPD:2,2013-06-04T16:59:00Z,27.3338,-82.5794,0.0,35.43,1111122 
FWRI,ioos:station:FWRI:NPD:2,2013-06-04T17:59:00Z,27.3338,-82.5794,0.0,35.43,1111122 
FWRI,ioos:station:FWRI:NPD:2,2013-06-04T18:59:00Z,27.3338,-82.5794,0.0,35.44,1111122 
FWRI,ioos:station:FWRI:NPD:2,2013-06-04T19:59:00Z,27.3338,-82.5794,0.0,35.44,1111122 
FWRI,ioos:station:FWRI:NPD:2,2013-06-04T20:59:00Z,27.3338,-82.5794,0.0,35.44,1111122 
FWRI,ioos:station:FWRI:NPD:2,2013-06-04T21:59:00Z,27.3338,-82.5794,0.0,35.44,1111122 
FWRI,ioos:station:FWRI:NPD:2,2013-06-04T22:59:00Z,27.3338,-82.5794,0.0,35.44,1111122 
FWRI,ioos:station:FWRI:NPD:2,2013-06-04T23:59:00Z,27.3338,-82.5794,0.0,35.28,1111122 
FWRI,ioos:station:FWRI:NPD:2,2013-06-05T00:59:00Z,27.3338,-82.5794,0.0,35.37,1111122 
FWRI,ioos:station:FWRI:NPD:2,2013-06-05T01:59:00Z,27.3338,-82.5794,0.0,35.48,1111122 
FWRI,ioos:station:FWRI:NPD:2,2013-06-05T06:59:00Z,27.3338,-82.5794,0.0,35.45,1111122 
FWRI,ioos:station:FWRI:NPD:2,2013-06-05T14:59:00Z,27.3338,-82.5794,0.0,35.35,1111122 
FWRI,ioos:station:FWRI:NPD:2,2013-06-05T15:59:00Z,27.3338,-82.5794,0.0,35.38,1111122 
FWRI,ioos:station:FWRI:NPD:2,2013-06-05T16:59:00Z,27.3338,-82.5794,0.0,35.38,1111122 
FWRI,ioos:station:FWRI:NPD:2,2013-06-05T17:59:00Z,27.3338,-82.5794,0.0,35.36,1111122 
FWRI,ioos:station:FWRI:NPD:2,2013-06-05T18:59:00Z,27.3338,-82.5794,0.0,35.33,1111122 
FWRI,ioos:station:FWRI:NPD:2,2013-06-05T19:59:00Z,27.3338,-82.5794,0.0,35.31,1111122 
FWRI,ioos:station:FWRI:NPD:2,2013-06-05T20:59:00Z,27.3338,-82.5794,0.0,35.37,1111122 
FWRI,ioos:station:FWRI:NPD:2,2013-06-05T21:59:00Z,27.3338,-82.5794,0.0,35.36,1111122 
FWRI,ioos:station:FWRI:NPD:2,2013-06-05T22:59:00Z,27.3338,-82.5794,0.0,35.35,1111122 
FWRI,ioos:station:FWRI:NPD:2,2013-06-05T23:59:00Z,27.3338,-82.5794,0.0,35.29,1111122 
FWRI,ioos:station:FWRI:NPD:2,2013-06-06T00:59:00Z,27.3338,-82.5794,0.0,35.31,1111122 
FWRI,ioos:station:FWRI:NPD:2,2013-06-06T01:59:00Z,27.3338,-82.5794,0.0,35.35,1111122 
FWRI,ioos:station:FWRI:NPD:2,2013-06-06T02:59:00Z,27.3338,-82.5794,0.0,35.42,1111122 
FWRI,ioos:station:FWRI:NPD:2,2013-06-06T03:59:00Z,27.3338,-82.5794,0.0,35.41,1111122 
FWRI,ioos:station:FWRI:NPD:2,2013-06-06T04:59:00Z,27.3338,-82.5794,0.0,35.41,1111122 
FWRI,ioos:station:FWRI:NPD:2,2013-06-06T05:59:00Z,27.3338,-82.5794,0.0,35.38,1111122 
FWRI,ioos:station:FWRI:NPD:2,2013-06-06T06:59:00Z,27.3338,-82.5794,0.0,35.34,1111122 
FWRI,ioos:station:FWRI:NPD:2,2013-06-06T07:59:00Z,27.3338,-82.5794,0.0,35.25,1111122 
FWRI,ioos:station:FWRI:NPD:2,2013-06-06T08:59:00Z,27.3338,-82.5794,0.0,35.24,1111122 
FWRI,ioos:station:FWRI:NPD:2,2013-06-06T09:59:00Z,27.3338,-82.5794,0.0,35.09,1111122 
FWRI,ioos:station:FWRI:NPD:2,2013-06-06T10:59:00Z,27.3338,-82.5794,0.0,35.2,1111122 
FWRI,ioos:station:FWRI:NPD:2,2013-06-06T11:59:00Z,27.3338,-82.5794,0.0,35.26,1111122 
FWRI,ioos:station:FWRI:NPD:2,2013-06-06T12:59:00Z,27.3338,-82.5794,0.0,35.29,1111122 
FWRI,ioos:station:FWRI:NPD:2,2013-06-06T13:59:00Z,27.3338,-82.5794,0.0,35.32,1111122 
FWRI,ioos:station:FWRI:NPD:2,2013-06-06T14:59:00Z,27.3338,-82.5794,0.0,35.25,1111122 
FWRI,ioos:station:FWRI:NPD:2,2013-06-06T15:59:00Z,27.3338,-82.5794,0.0,35.08,1111122 
FWRI,ioos:station:FWRI:NPD:2,2013-06-06T16:59:00Z,27.3338,-82.5794,0.0,35.01,1111122 
FWRI,ioos:station:FWRI:NPD:2,2013-06-06T17:59:00Z,27.3338,-82.5794,0.0,35.01,1111122 
FWRI,ioos:station:FWRI:NPD:2,2013-06-06T18:59:00Z,27.3338,-82.5794,0.0,35.03,1111122 
FWRI,ioos:station:FWRI:NPD:2,2013-06-06T19:59:00Z,27.3338,-82.5794,0.0,34.87,1111122 
FWRI,ioos:station:FWRI:NPD:2,2013-06-06T20:59:00Z,27.3338,-82.5794,0.0,34.97,1111122 
FWRI,ioos:station:FWRI:NPD:2,2013-06-06T21:59:00Z,27.3338,-82.5794,0.0,34.97,1111122 
FWRI,ioos:station:FWRI:NPD:2,2013-06-06T22:59:00Z,27.3338,-82.5794,0.0,34.93,1111122 
FWRI,ioos:station:FWRI:NPD:2,2013-06-06T23:59:00Z,27.3338,-82.5794,0.0,34.92,1111122 
FWRI,ioos:station:FWRI:NPD:2,2013-06-07T00:59:00Z,27.3338,-82.5794,0.0,34.9,1111122 
FWRI,ioos:station:FWRI:NPD:2,2013-06-07T01:59:00Z,27.3338,-82.5794,0.0,34.96,1111122 
FWRI,ioos:station:FWRI:NPD:2,2013-06-07T02:59:00Z,27.3338,-82.5794,0.0,34.96,1111122 
FWRI,ioos:station:FWRI:NPD:2,2013-06-07T03:59:00Z,27.3338,-82.5794,0.0,34.97,1111122 
FWRI,ioos:station:FWRI:NPD:2,2013-06-07T04:59:00Z,27.3338,-82.5794,0.0,35.0,1111122 
FWRI,ioos:station:FWRI:NPD:2,2013-06-07T05:59:00Z,27.3338,-82.5794,0.0,34.95,1111122 
FWRI,ioos:station:FWRI:NPD:2,2013-06-07T06:59:00Z,27.3338,-82.5794,0.0,34.94,1111122 
FWRI,ioos:station:FWRI:NPD:2,2013-06-07T07:59:00Z,27.3338,-82.5794,0.0,34.97,1111122 
FWRI,ioos:station:FWRI:NPD:2,2013-06-07T08:59:00Z,27.3338,-82.5794,0.0,34.48,1111122 
FWRI,ioos:station:FWRI:NPD:2,2013-06-07T09:59:00Z,27.3338,-82.5794,0.0,34.9,1111122 
FWRI,ioos:station:FWRI:NPD:2,2013-06-07T10:59:00Z,27.3338,-82.5794,0.0,34.9,1111122 
FWRI,ioos:station:FWRI:NPD:2,2013-06-07T11:59:00Z,27.3338,-82.5794,0.0,34.93,1111122 
FWRI,ioos:station:FWRI:NPD:2,2013-06-07T12:59:00Z,27.3338,-82.5794,0.0,35.02,1111122 
FWRI,ioos:station:FWRI:NPD:2,2013-06-07T13:59:00Z,27.3338,-82.5794,0.0,35.03,1111122 
FWRI,ioos:station:FWRI:NPD:2,2013-06-07T14:59:00Z,27.3338,-82.5794,0.0,34.98,1111122 
FWRI,ioos:station:FWRI:NPD:2,2013-06-07T15:59:00Z,27.3338,-82.5794,0.0,35.03,1111122 
FWRI,ioos:station:FWRI:NPD:2,2013-06-07T16:59:00Z,27.3338,-82.5794,0.0,35.02,1111122 
FWRI,ioos:station:FWRI:NPD:2,2013-06-07T17:59:00Z,27.3338,-82.5794,0.0,35.01,1111122 
FWRI,ioos:station:FWRI:NPD:2,2013-06-07T18:59:00Z,27.3338,-82.5794,0.0,34.99,1111122 
FWRI,ioos:station:FWRI:NPD:2,2013-06-07T19:59:00Z,27.3338,-82.5794,0.0,34.9,1111122 
FWRI,ioos:station:FWRI:NPD:2,2013-06-07T20:59:00Z,27.3338,-82.5794,0.0,34.96,1111122 
FWRI,ioos:station:FWRI:NPD:2,2013-06-07T21:59:00Z,27.3338,-82.5794,0.0,34.94,1111122 
FWRI,ioos:station:FWRI:NPD:2,2013-06-07T22:59:00Z,27.3338,-82.5794,0.0,34.93,1111122 
FWRI,ioos:station:FWRI:NPD:2,2013-06-07T23:59:00Z,27.3338,-82.5794,0.0,34.93,1111122 
FWRI,ioos:station:FWRI:NPD:2,2013-06-08T00:59:00Z,27.3338,-82.5794,0.0,34.93,1111122 
FWRI,ioos:station:FWRI:NPD:2,2013-06-08T01:59:00Z,27.3338,-82.5794,0.0,34.95,1111122 
FWRI,ioos:station:FWRI:NPD:2,2013-06-08T02:59:00Z,27.3338,-82.5794,0.0,34.93,1111122 
FWRI,ioos:station:FWRI:NPD:2,2013-06-08T03:59:00Z,27.3338,-82.5794,0.0,35.07,1111122 
FWRI,ioos:station:FWRI:NPD:2,2013-06-08T04:59:00Z,27.3338,-82.5794,0.0,35.13,1111122 
FWRI,ioos:station:FWRI:NPD:2,2013-06-08T05:59:00Z,27.3338,-82.5794,0.0,35.04,1111122 
FWRI,ioos:station:FWRI:NPD:2,2013-06-08T06:59:00Z,27.3338,-82.5794,0.0,34.96,1111122 
FWRI,ioos:station:FWRI:NPD:2,2013-06-08T07:59:00Z,27.3338,-82.5794,0.0,34.92,1111122 
FWRI,ioos:station:FWRI:NPD:2,2013-06-08T08:59:00Z,27.3338,-82.5794,0.0,34.95,1111122 
FWRI,ioos:station:FWRI:NPD:2,2013-06-08T09:59:00Z,27.3338,-82.5794,0.0,34.96,1111122 
FWRI,ioos:station:FWRI:NPD:2,2013-06-08T10:59:00Z,27.3338,-82.5794,0.0,35.0,1111122 
FWRI,ioos:station:FWRI:NPD:2,2013-06-08T11:59:00Z,27.3338,-82.5794,0.0,34.99,1111122 
FWRI,ioos:station:FWRI:NPD:2,2013-06-08T12:59:00Z,27.3338,-82.5794,0.0,34.97,1111122 
FWRI,ioos:station:FWRI:NPD:2,2013-06-08T13:59:00Z,27.3338,-82.5794,0.0,34.98,1111122 
FWRI,ioos:station:FWRI:NPD:2,2013-06-08T14:59:00Z,27.3338,-82.5794,0.0,34.97,1111122 
FWRI,ioos:station:FWRI:NPD:2,2013-06-08T15:59:00Z,27.3338,-82.5794,0.0,34.92,1111122 
FWRI,ioos:station:FWRI:NPD:2,2013-06-08T16:59:00Z,27.3338,-82.5794,0.0,34.9,1111122 
FWRI,ioos:station:FWRI:NPD:2,2013-06-08T17:59:00Z,27.3338,-82.5794,0.0,34.86,1111122 
FWRI,ioos:station:FWRI:NPD:2,2013-06-08T18:59:00Z,27.3338,-82.5794,0.0,34.9,1111122 
FWRI,ioos:station:FWRI:NPD:2,2013-06-08T19:59:00Z,27.3338,-82.5794,0.0,34.78,1111122 
FWRI,ioos:station:FWRI:NPD:2,2013-06-08T20:59:00Z,27.3338,-82.5794,0.0,34.79,1111122 
FWRI,ioos:station:FWRI:NPD:2,2013-06-08T21:59:00Z,27.3338,-82.5794,0.0,34.79,1111122 
FWRI,ioos:station:FWRI:NPD:2,2013-06-08T22:59:00Z,27.3338,-82.5794,0.0,34.86,1111122 
FWRI,ioos:station:FWRI:NPD:2,2013-06-08T23:59:00Z,27.3338,-82.5794,0.0,34.81,1111122 
FWRI,ioos:station:FWRI:NPD:2,2013-06-09T00:59:00Z,27.3338,-82.5794,0.0,34.89,1111122 
FWRI,ioos:station:FWRI:NPD:2,2013-06-09T01:59:00Z,27.3338,-82.5794,0.0,34.61,1111122 
FWRI,ioos:station:FWRI:NPD:2,2013-06-09T02:59:00Z,27.3338,-82.5794,0.0,34.46,1111122 
FWRI,ioos:station:FWRI:NPD:2,2013-06-09T03:59:00Z,27.3338,-82.5794,0.0,34.68,1111122 
FWRI,ioos:station:FWRI:NPD:2,2013-06-09T04:59:00Z,27.3338,-82.5794,0.0,34.62,1111122 
FWRI,ioos:station:FWRI:NPD:2,2013-06-09T05:59:00Z,27.3338,-82.5794,0.0,34.92,1111122 
FWRI,ioos:station:FWRI:NPD:2,2013-06-09T06:59:00Z,27.3338,-82.5794,0.0,35.11,1111122 
FWRI,ioos:station:FWRI:NPD:2,2013-06-09T07:59:00Z,27.3338,-82.5794,0.0,35.11,1111122 
FWRI,ioos:station:FWRI:NPD:2,2013-06-09T08:59:00Z,27.3338,-82.5794,0.0,35.15,1111122 
FWRI,ioos:station:FWRI:NPD:2,2013-06-09T09:59:00Z,27.3338,-82.5794,0.0,35.2,1111122 
FWRI,ioos:station:FWRI:NPD:2,2013-06-09T10:59:00Z,27.3338,-82.5794,0.0,35.19,1111122 
FWRI,ioos:station:FWRI:NPD:2,2013-06-09T11:59:00Z,27.3338,-82.5794,0.0,34.96,1111122 
FWRI,ioos:station:FWRI:NPD:2,2013-06-09T12:59:00Z,27.3338,-82.5794,0.0,35.05,1111122 
FWRI,ioos:station:FWRI:NPD:2,2013-06-09T13:59:00Z,27.3338,-82.5794,0.0,35.09,1111122 
FWRI,ioos:station:FWRI:NPD:2,2013-06-09T14:59:00Z,27.3338,-82.5794,0.0,35.06,1111122 
FWRI,ioos:station:FWRI:NPD:2,2013-06-09T15:59:00Z,27.3338,-82.5794,0.0,35.03,1111122 
FWRI,ioos:station:FWRI:NPD:2,2013-06-09T16:59:00Z,27.3338,-82.5794,0.0,35.02,1111122 
FWRI,ioos:station:FWRI:NPD:2,2013-06-09T17:59:00Z,27.3338,-82.5794,0.0,35.03,1111122 
FWRI,ioos:station:FWRI:NPD:2,2013-06-09T18:59:00Z,27.3338,-82.5794,0.0,35.02,1111122 
FWRI,ioos:station:FWRI:NPD:2,2013-06-09T19:59:00Z,27.3338,-82.5794,0.0,34.89,1111122 
FWRI,ioos:station:FWRI:NPD:2,2013-06-09T20:59:00Z,27.3338,-82.5794,0.0,34.79,1111122 
FWRI,ioos:station:FWRI:NPD:2,2013-06-09T21:59:00Z,27.3338,-82.5794,0.0,34.67,1111122 
FWRI,ioos:station:FWRI:NPD:2,2013-06-09T22:59:00Z,27.3338,-82.5794,0.0,34.52,1111122 
FWRI,ioos:station:FWRI:NPD:2,2013-06-09T23:59:00Z,27.3338,-82.5794,0.0,34.44,1111122 
FWRI,ioos:station:FWRI:NPD:2,2013-06-10T00:59:00Z,27.3338,-82.5794,0.0,34.5,1111122 
FWRI,ioos:station:FWRI:NPD:2,2013-06-10T01:59:00Z,27.3338,-82.5794,0.0,34.43,1111122 
FWRI,ioos:station:FWRI:NPD:2,2013-06-10T02:59:00Z,27.3338,-82.5794,0.0,34.21,1111122 
FWRI,ioos:station:FWRI:NPD:2,2013-06-10T03:59:00Z,27.3338,-82.5794,0.0,34.38,1111122 
FWRI,ioos:station:FWRI:NPD:2,2013-06-10T04:59:00Z,27.3338,-82.5794,0.0,34.89,1111122 
FWRI,ioos:station:FWRI:NPD:2,2013-06-10T05:59:00Z,27.3338,-82.5794,0.0,35.0,1111122 
FWRI,ioos:station:FWRI:NPD:2,2013-06-10T06:59:00Z,27.3338,-82.5794,0.0,35.08,1111122 
FWRI,ioos:station:FWRI:NPD:2,2013-06-10T07:59:00Z,27.3338,-82.5794,0.0,35.11,1111122 
FWRI,ioos:station:FWRI:NPD:2,2013-06-10T08:59:00Z,27.3338,-82.5794,0.0,35.13,1111122 
FWRI,ioos:station:FWRI:NPD:2,2013-06-10T09:59:00Z,27.3338,-82.5794,0.0,35.16,1111122 
FWRI,ioos:station:FWRI:NPD:2,2013-06-10T10:59:00Z,27.3338,-82.5794,0.0,34.99,1111122 
FWRI,ioos:station:FWRI:NPD:2,2013-06-10T11:59:00Z,27.3338,-82.5794,0.0,34.97,1111122 
FWRI,ioos:station:FWRI:NPD:2,2013-06-10T12:59:00Z,27.3338,-82.5794,0.0,34.85,1111122 
FWRI,ioos:station:FWRI:NPD:2,2013-06-10T13:59:00Z,27.3338,-82.5794,0.0,35.03,1111122 
FWRI,ioos:station:FWRI:NPD:2,2013-06-10T14:59:00Z,27.3338,-82.5794,0.0,35.04,1111122 
FWRI,ioos:station:FWRI:NPD:2,2013-06-10T15:59:00Z,27.3338,-82.5794,0.0,35.02,1111122 
FWRI,ioos:station:FWRI:NPD:2,2013-06-10T17:59:00Z,27.3338,-82.5794,0.0,34.86,1111122 
FWRI,ioos:station:FWRI:NPD:2,2013-06-10T18:59:00Z,27.3338,-82.5794,0.0,34.84,1111122 
FWRI,ioos:station:FWRI:NPD:2,2013-06-10T19:59:00Z,27.3338,-82.5794,0.0,34.88,1111122 
FWRI,ioos:station:FWRI:NPD:2,2013-06-10T20:59:00Z,27.3338,-82.5794,0.0,34.7,1111122 
FWRI,ioos:station:FWRI:NPD:2,2013-06-10T21:59:00Z,27.3338,-82.5794,0.0,34.67,1111122 
FWRI,ioos:station:FWRI:NPD:2,2013-06-10T22:59:00Z,27.3338,-82.5794,0.0,34.56,1111122 
FWRI,ioos:station:FWRI:NPD:2,2013-06-10T23:59:00Z,27.3338,-82.5794,0.0,34.47,1111122 
FWRI,ioos:station:FWRI:NPD:2,2013-06-11T00:59:00Z,27.3338,-82.5794,0.0,34.52,1111122 
FWRI,ioos:station:FWRI:NPD:2,2013-06-11T01:59:00Z,27.3338,-82.5794,0.0,34.52,1111122 
FWRI,ioos:station:FWRI:NPD:2,2013-06-11T02:59:00Z,27.3338,-82.5794,0.0,34.4,1111122 
FWRI,ioos:station:FWRI:NPD:2,2013-06-11T03:59:00Z,27.3338,-82.5794,0.0,34.08,1111122 
FWRI,ioos:station:FWRI:NPD:2,2013-06-11T04:59:00Z,27.3338,-82.5794,0.0,34.18,1111122 
FWRI,ioos:station:FWRI:NPD:2,2013-06-11T05:59:00Z,27.3338,-82.5794,0.0,34.69,1111122 
FWRI,ioos:station:FWRI:NPD:2,2013-06-11T06:59:00Z,27.3338,-82.5794,0.0,34.81,1111122 
FWRI,ioos:station:FWRI:NPD:2,2013-06-11T07:59:00Z,27.3338,-82.5794,0.0,34.86,1111122 
FWRI,ioos:station:FWRI:NPD:2,2013-06-11T08:59:00Z,27.3338,-82.5794,0.0,34.84,1111122 
FWRI,ioos:station:FWRI:NPD:2,2013-06-11T09:59:00Z,27.3338,-82.5794,0.0,34.88,1111122 
FWRI,ioos:station:FWRI:NPD:2,2013-06-11T10:59:00Z,27.3338,-82.5794,0.0,34.9,1111122 
FWRI,ioos:station:FWRI:NPD:2,2013-06-11T11:59:00Z,27.3338,-82.5794,0.0,34.67,1111122 
FWRI,ioos:station:FWRI:NPD:2,2013-06-11T12:59:00Z,27.3338,-82.5794,0.0,34.72,1111122 
FWRI,ioos:station:FWRI:NPD:2,2013-06-11T13:59:00Z,27.3338,-82.5794,0.0,34.81,1111122 
FWRI,ioos:station:FWRI:NPD:2,2013-06-11T14:59:00Z,27.3338,-82.5794,0.0,34.94,1111122 
FWRI,ioos:station:FWRI:NPD:2,2013-06-11T15:59:00Z,27.3338,-82.5794,0.0,34.92,1111122 
FWRI,ioos:station:FWRI:NPD:2,2013-06-11T16:59:00Z,27.3338,-82.5794,0.0,34.94,1111122 
FWRI,ioos:station:FWRI:NPD:2,2013-06-11T17:59:00Z,27.3338,-82.5794,0.0,34.94,1111122 
FWRI,ioos:station:FWRI:NPD:2,2013-06-11T18:59:00Z,27.3338,-82.5794,0.0,34.97,1111122 
FWRI,ioos:station:FWRI:NPD:2,2013-06-11T19:59:00Z,27.3338,-82.5794,0.0,34.97,1111122 
FWRI,ioos:station:FWRI:NPD:2,2013-06-11T20:59:00Z,27.3338,-82.5794,0.0,34.8,1111122 
FWRI,ioos:station:FWRI:NPD:2,2013-06-11T21:59:00Z,27.3338,-82.5794,0.0,34.8,1111122 
FWRI,ioos:station:FWRI:NPD:2,2013-06-11T22:59:00Z,27.3338,-82.5794,0.0,34.72,1111122 
FWRI,ioos:station:FWRI:NPD:2,2013-06-11T23:59:00Z,27.3338,-82.5794,0.0,34.56,1111122 
FWRI,ioos:station:FWRI:NPD:2,2013-06-12T00:59:00Z,27.3338,-82.5794,0.0,34.33,1111122 
FWRI,ioos:station:FWRI:NPD:2,2013-06-12T01:59:00Z,27.3338,-82.5794,0.0,34.2,1111122 
FWRI,ioos:station:FWRI:NPD:2,2013-06-12T02:59:00Z,27.3338,-82.5794,0.0,34.05,1111122 
FWRI,ioos:station:FWRI:NPD:2,2013-06-12T03:59:00Z,27.3338,-82.5794,0.0,33.99,1111122 
FWRI,ioos:station:FWRI:NPD:2,2013-06-12T04:59:00Z,27.3338,-82.5794,0.0,34.07,1111122 
FWRI,ioos:station:FWRI:NPD:2,2013-06-12T05:59:00Z,27.3338,-82.5794,0.0,34.58,1111122 
FWRI,ioos:station:FWRI:NPD:2,2013-06-12T06:59:00Z,27.3338,-82.5794,0.0,34.68,1111122 
FWRI,ioos:station:FWRI:NPD:2,2013-06-12T07:59:00Z,27.3338,-82.5794,0.0,34.68,1111122 
FWRI,ioos:station:FWRI:NPD:2,2013-06-12T08:59:00Z,27.3338,-82.5794,0.0,34.74,1111122 
FWRI,ioos:station:FWRI:NPD:2,2013-06-12T09:59:00Z,27.3338,-82.5794,0.0,34.79,1111122 
FWRI,ioos:station:FWRI:NPD:2,2013-06-12T10:59:00Z,27.3338,-82.5794,0.0,34.81,1111122 
FWRI,ioos:station:FWRI:NPD:2,2013-06-12T11:59:00Z,27.3338,-82.5794,0.0,34.84,1111122 
FWRI,ioos:station:FWRI:NPD:2,2013-06-12T12:59:00Z,27.3338,-82.5794,0.0,34.8,1111122 
FWRI,ioos:station:FWRI:NPD:2,2013-06-12T13:59:00Z,27.3338,-82.5794,0.0,34.82,1111122 
FWRI,ioos:station:FWRI:NPD:2,2013-06-12T14:59:00Z,27.3338,-82.5794,0.0,34.87,1111122 
FWRI,ioos:station:FWRI:NPD:2,2013-06-12T15:59:00Z,27.3338,-82.5794,0.0,34.88,1111122 
FWRI,ioos:station:FWRI:NPD:2,2013-06-12T16:59:00Z,27.3338,-82.5794,0.0,34.87,1111122 
FWRI,ioos:station:FWRI:NPD:2,2013-06-12T17:59:00Z,27.3338,-82.5794,0.0,34.87,1111122 
FWRI,ioos:station:FWRI:NPD:2,2013-06-12T18:59:00Z,27.3338,-82.5794,0.0,34.89,1111122 
FWRI,ioos:station:FWRI:NPD:2,2013-06-12T19:59:00Z,27.3338,-82.5794,0.0,34.92,1111122 
FWRI,ioos:station:FWRI:NPD:2,2013-06-12T20:59:00Z,27.3338,-82.5794,0.0,34.85,1111122 
FWRI,ioos:station:FWRI:NPD:2,2013-06-12T21:59:00Z,27.3338,-82.5794,0.0,34.85,1111122 
FWRI,ioos:station:FWRI:NPD:2,2013-06-12T22:59:00Z,27.3338,-82.5794,0.0,34.82,1111122 
FWRI,ioos:station:FWRI:NPD:2,2013-06-12T23:59:00Z,27.3338,-82.5794,0.0,34.8,1111122 
FWRI,ioos:station:FWRI:NPD:2,2013-06-13T00:59:00Z,27.3338,-82.5794,0.0,34.48,1111122 
FWRI,ioos:station:FWRI:NPD:2,2013-06-13T01:59:00Z,27.3338,-82.5794,0.0,34.28,1111122 